Temperature
20 19 20 19 19 19 19 20 20 20 19 19 19 19 19 19 19 19 19 19 18 18 18 18 18 18 18 18 18 18 18 18 18 18 18 18 18 17 17 17 17 17 17
21 19 20 19 19 19 19 20 20 20 19 19 19 19 19 19 19 19 19 18 18 18 18 18 18 18 18 18 18 18 18 18 18 18 18 18 18 17 17 17 17 17 17
20 19 20 19 19 19 19 20 19 19 19 19 19 19 19 19 19 19 19 18 18 18 18 18 18 18 18 18 18 18 18 18 18 18 17 17 17 17 17 17 17 17 17
20 19 19 20 19 19 19 19 19 19 19 19 19 19 19 19 19 19 18 18 18 18 18 18 18 18 18 18 18 18 18 18 18 17 17 17 17 17 17 17 17 17 17
20 19 19 20 19 19 19 19 19 19 19 19 19 19 19 19 19 19 18 18 18 18 18 18 18 18 18 18 18 18 18 18 18 17 17 17 17 17 17 17 17 17 17
20 19 19 19 19 19 19 19 19 19 19 19 19 19 19 19 19 19 19 18 18 18 18 18 18 18 18 18 18 18 18 18 17 17 17 17 17 17 17 17 17 17 17
20 19 19 19 19 19 19 19 19 19 19 19 19 19 19 19 18 18 18 18 18 18 18 18 18 18 18 18 18 18 18 18 18 17 17 17 17 17 17 17 17 17 17
20 19 18 19 19 19 19 19 19 19 19 19 19 19 19 18 18 18 18 18 18 18 18 18 18 18 18 18 18 18 18 17 17 17 17 17 17 17 17 17 17 17 17
19 19 18 18 19 19 19 19 19 19 19 19 19 18 18 18 18 18 18 18 18 18 18 18 18 18 18 18 18 18 18 18 18 18 17 17 18 17 17 17 17 17 17
19 19 18 18 18 18 18 19 19 19 18 19 18 18 18 18 18 18 18 18 18 18 18 18 18 18 18 18 18 18 18 18 18 18 17 17 18 17 17 17 17 17 17
18 18 18 18 18 18 18 18 18 18 18 18 18 18 18 17 17 17 17 18 18 18 18 18 18 18 18 18 18 18 18 18 18 18 17 17 18 17 17 17 17 17 17
18 18 18 18 18 18 18 18 18 18 18 18 17 18 18 17 17 17 17 18 18 18 18 18 18 18 18 17 17 18 18 18 18 18 17 18 18 17 17 17 17 17 17
18 18 18 18 18 18 18 18 18 18 18 17 17 18 18 17 17 17 17 17 17 17 17 17 17 17 17 17 17 17 17 18 18 18 18 18 18 17 17 17 17 17 17
18 18 18 18 18 18 18 18 18 18 18 17 17 17 17 17 17 17 17 17 17 17 17 17 17 17 17 17 17 17 17 17 18 17 17 18 18 18 17 17 17 17 17
18 18 18 18 18 18 18 18 17 17 17 17 17 17 17 17 17 17 17 17 17 17 17 17 17 17 17 17 17 17 17 17 17 17 17 17 17 17 17 17 17 17 17
18 18 18 18 18 18 18 18 17 17 17 17 17 17 17 17 17 17 17 17 17 17 17 17 16 16 16 16 16 16 16 16 16 16 17 17 17 17 17 17 17 17 17
18 17 17 18 17 18 17 17 17 17 17 17 17 17 17 16 16 16 16 16 16 16 16 16 16 16 16 16 16 16 16 16 16 16 16 16 16 17 17 17 17 17 17
17 17 17 17 17 17 17 17 17 17 17 16 16 16 16 16 16 16 16 16 16 16 16 16 16 16 16 16 16 16 16 16 16 16 16 16 16 17 17 17 17 17 17
17 17 17 17 17 17 17 17 17 17 16 16 16 16 16 16 16 16 16 16 16 16 16 16 15 16 16 16 16 16 16 16 16 16 16 16 16 16 16 16 17 17 17
17 17 17 17 17 17 17 17 17 16 16 16 16 16 16 16 16 16 15 15 15 15 15 15 15 15 15 15 16 16 16 16 16 16 16 16 16 16 16 16 16 16 16
17 17 17 17 17 17 16 16 16 16 16 16 16 16 16 15 15 15 15 15 15 15 15 15 15 15 15 15 15 16 16 16 16 15 15 16 16 16 16 16 16 16 16
16 17 17 17 17 17 16 16 16 16 16 15 15 16 15 15 15 15 15 15 15 15 14 14 14 15 15 15 15 16 17 17 15 16 15 15 15 15 15 15 16 16 16
16 16 16 16 17 16 16 16 16 16 16 15 15 15 15 15 15 15 15 14 14 14 14 14 14 14 15 14 14 15 17 18 17 16 15 15 15 15 15 15 15 15 15
17 17 16 17 17 17 16 16 16 16 16 15 15 15 15 15 15 14 14 14 14 14 14 14 14 14 14 15 14 14 14 14 15 16 16 15 15 15 15 15 15 15 15
17 17 17 17 17 17 16 16 16 16 16 15 15 15 15 15 14 14 14 14 14 14 14 13 13 13 13 14 14 14 14 14 14 15 16 15 15 15 15 14 14 15 15
17 17 16 16 17 17 16 16 16 15 15 15 15 15 15 14 14 14 14 14 14 13 13 13 13 13 13 13 13 13 14 14 14 15 15 15 15 15 14 14 14 14 14
Wind_Speed
15 18 20 18 18 18 18 18 18 18 17 16 16 15 14 13 12 11 11 11 11 11 12 12 12 12 12 12 12 12 12 13 13 13 13 13 13 13 14 14 14 16 17
18 21 21 18 18 18 18 18 18 17 17 16 15 14 13 12 12 11 11 10 10 11 11 12 12 12 12 12 12 12 12 12 13 13 13 14 13 12 12 10 12 16 16
20 21 21 19 18 18 18 17 17 17 16 15 15 14 13 12 11 11 10 10 10 11 11 11 12 12 12 12 12 12 12 12 11 10 9 12 13 12 12 14 17 16 15
20 21 21 20 19 18 18 17 17 17 16 15 14 13 12 11 11 10 10 10 10 10 11 11 11 12 12 11 11 11 11 10 8 6 7 11 12 13 13 15 15 15 15
19 20 21 21 19 18 18 17 17 16 15 15 14 13 12 11 10 10 9 9 9 10 10 10 10 11 11 10 10 10 9 8 5 4 9 10 12 13 12 13 14 14 14
18 19 22 20 19 18 17 17 16 16 15 14 13 12 12 11 10 10 9 9 9 9 10 10 10 10 9 9 8 8 7 5 6 7 8 8 11 12 12 12 13 13 13
18 18 22 20 19 18 17 16 16 15 14 13 13 11 11 10 9 9 9 9 8 9 9 9 9 8 8 7 7 6 5 2 1 7 6 8 11 11 11 11 12 12 12
17 17 20 20 18 18 17 16 15 14 14 13 12 11 10 9 9 9 8 8 8 8 8 8 8 7 6 6 6 5 3 3 5 6 6 8 11 9 10 10 11 11 11
15 15 17 18 17 16 16 15 15 14 13 12 11 10 9 8 8 8 7 7 6 7 6 6 6 6 5 5 4 4 2 3 0 5 5 8 11 8 9 10 10 10 11
14 14 14 15 15 15 15 15 14 13 12 12 11 10 8 8 8 7 8 7 6 6 6 5 5 5 4 3 3 3 2 5 2 4 4 9 10 8 8 9 9 10 10
14 12 13 13 13 13 14 15 14 13 12 11 11 10 8 8 8 8 6 7 5 5 5 4 4 4 4 5 4 2 5 5 3 2 4 11 9 8 8 9 9 9 10
15 13 12 12 13 13 11 12 11 11 11 9 8 8 7 4 3 4 8 5 4 4 5 5 4 5 7 6 7 7 6 4 2 3 6 10 8 8 9 10 10 10 10
14 13 11 11 10 10 8 9 8 7 8 8 7 6 4 4 4 3 4 5 5 6 5 5 5 4 4 2 3 5 3 4 3 2 6 9 7 8 9 10 11 11 11
12 12 11 10 9 9 8 7 7 6 6 6 7 6 5 3 3 2 2 2 3 3 2 3 2 2 3 4 5 4 4 5 4 3 5 7 7 8 10 11 12 13 13
12 11 10 10 9 8 7 6 6 5 6 6 6 6 5 4 2 2 1 1 2 2 2 2 2 1 2 3 4 3 4 5 5 5 3 7 7 8 9 11 13 14 14
12 11 9 9 9 8 6 5 5 5 5 5 5 5 4 3 3 2 2 1 1 1 0 1 1 1 2 2 3 3 4 5 5 6 6 6 9 9 10 10 12 14 16
11 11 10 10 9 8 7 6 6 5 5 5 5 5 4 3 3 2 2 2 1 1 1 1 0 1 2 2 3 3 4 4 5 5 6 6 7 11 11 11 12 14 16
10 10 10 9 10 8 7 6 5 6 6 5 6 5 4 4 3 3 2 2 1 1 1 1 0 1 1 2 2 3 3 3 5 5 6 7 7 7 10 12 13 14 15
10 9 9 8 9 9 8 7 6 6 5 5 6 5 5 5 4 3 3 2 2 1 0 0 1 1 2 3 3 3 4 4 4 6 6 7 6 7 7 10 13 13 14
9 9 9 8 9 9 7 7 6 6 6 6 5 5 5 5 5 4 4 2 2 1 1 1 1 1 2 3 5 4 4 4 4 4 6 6 6 7 8 8 9 12 15
9 9 9 9 9 8 7 7 7 7 6 5 5 6 5 5 5 3 3 3 1 1 1 1 1 1 1 2 4 4 4 4 3 3 4 4 4 5 6 6 8 8 10
10 9 10 9 9 9 7 6 5 6 6 5 5 6 6 5 4 4 2 2 1 1 1 1 1 2 1 2 4 5 3 3 3 1 2 2 3 3 4 5 5 7 9
11 11 9 9 9 8 8 7 7 6 6 6 6 5 5 5 4 3 3 1 1 1 1 1 1 2 2 1 2 4 4 3 2 2 1 1 2 3 4 4 5 5 7
12 11 10 9 9 8 8 8 9 7 6 6 6 5 5 5 4 3 3 2 1 0 1 1 1 1 3 3 1 1 3 5 5 3 3 2 1 3 3 4 4 4 6
12 11 11 10 9 8 8 8 8 7 6 6 6 7 5 5 4 3 3 2 1 0 1 1 1 2 2 4 3 3 3 3 5 6 5 4 4 3 3 4 4 5 4
12 12 11 11 10 9 8 8 7 7 7 7 7 7 6 5 4 4 3 2 1 1 1 0 1 1 2 3 4 4 4 4 5 5 7 7 6 5 4 4 5 4 4
Wind_Direction
157 148 146 151 149 147 145 143 142 142 140 138 136 132 128 125 120 114 108 103 99 96 95 94 94 94 94 93 93 93 97 101 102 103 103 103 106 111 113 121 124 111 112
152 147 148 152 150 147 144 141 140 140 140 138 136 133 130 126 121 115 109 105 100 96 95 95 95 94 94 94 93 94 97 101 104 109 115 112 107 111 113 106 98 110 117
149 147 152 152 149 146 143 142 140 140 139 138 137 135 132 127 122 117 112 107 102 99 97 96 96 95 95 94 94 95 98 102 108 125 151 122 111 110 109 104 106 117 118
149 150 155 150 150 147 145 143 142 141 140 138 136 135 132 128 124 118 113 108 104 103 102 101 99 97 95 94 94 96 99 103 118 175 134 110 114 111 114 115 118 119 120
150 152 148 153 152 149 147 145 143 141 140 139 137 135 132 128 125 119 114 109 106 105 105 104 101 98 95 94 94 97 101 111 156 185 98 105 108 115 118 121 123 122 122
153 153 149 156 154 152 149 147 144 143 142 141 139 137 135 131 127 122 118 115 112 109 107 106 102 97 95 93 91 96 107 146 207 105 111 115 114 122 124 125 126 126 126
156 152 151 157 156 155 153 150 147 146 145 144 142 140 139 135 133 129 125 119 116 115 114 112 105 99 94 88 86 90 101 218 142 104 113 107 111 126 131 130 130 130 129
156 150 149 156 158 158 156 153 151 149 148 147 146 145 144 139 136 134 129 125 123 120 119 118 112 105 94 83 82 88 100 270 128 114 114 111 114 132 136 137 136 136 135
153 147 151 159 161 160 159 156 154 154 153 151 150 149 147 144 142 140 138 136 133 130 128 126 124 116 101 86 83 91 90 302 246 118 122 115 127 141 144 145 144 144 143
152 151 153 159 161 165 164 161 158 158 157 155 155 154 152 155 160 159 166 146 145 145 144 142 138 132 123 110 101 109 166 243 196 138 128 121 138 154 156 157 157 155 153
157 156 159 159 164 171 169 162 164 162 162 164 165 160 175 184 172 174 154 138 160 160 159 158 155 151 167 163 153 174 228 243 161 130 116 118 153 170 171 170 170 168 165
162 162 165 163 168 172 169 160 171 170 165 177 166 171 186 179 183 177 128 158 176 178 179 171 173 192 228 197 174 202 231 237 235 172 128 134 168 186 186 183 182 181 179
164 165 165 165 170 168 162 162 169 162 162 173 165 170 181 180 186 189 176 173 187 196 195 172 198 219 239 261 247 230 257 265 252 228 138 149 183 200 200 194 192 192 190
165 166 164 165 167 169 164 162 163 163 166 170 162 177 179 192 200 194 208 193 199 202 195 195 217 222 259 256 256 262 251 262 262 257 143 158 196 209 212 207 202 201 198
166 164 162 162 162 162 158 169 161 164 165 158 160 172 185 194 197 186 194 211 220 208 200 203 224 232 252 253 259 255 259 256 265 256 195 171 203 215 217 216 212 209 205
166 163 159 162 158 158 162 161 153 160 161 158 156 160 177 187 176 177 182 191 211 223 245 230 202 231 255 270 267 264 266 264 255 254 251 200 202 217 221 222 219 216 212
164 160 160 161 162 165 167 164 157 159 159 150 138 141 160 163 151 174 164 163 129 132 166 198 275 263 252 257 263 265 263 273 276 264 260 255 225 209 215 224 225 221 219
159 161 165 165 162 167 163 159 150 152 148 138 136 138 142 138 147 162 145 122 124 167 157 148 236 279 299 289 282 280 272 260 267 269 262 252 256 245 213 214 225 225 223
160 162 162 162 160 163 159 154 148 144 144 143 142 138 135 136 139 144 118 108 161 148 147 241 104 286 281 299 282 266 278 269 267 264 269 263 256 261 251 213 217 224 227
158 160 160 159 158 157 154 147 148 145 147 142 136 128 138 139 136 135 135 134 166 147 135 87 114 329 304 304 292 285 269 272 266 263 265 258 253 253 249 248 228 221 220
157 159 160 158 157 158 156 158 159 156 155 148 140 133 141 140 137 140 132 136 182 139 134 175 235 208 306 321 286 272 251 244 262 264 264 268 254 258 258 251 246 241 225
162 162 159 161 163 165 157 154 159 150 154 143 134 131 142 142 150 149 126 157 147 136 148 151 266 300 335 338 313 296 275 219 206 231 253 247 281 274 265 254 250 242 249
166 167 164 162 161 162 156 153 149 147 156 152 149 148 146 149 150 125 137 118 132 192 140 164 253 292 313 318 336 315 303 310 319 201 206 278 305 301 287 289 262 254 248
166 163 160 158 158 157 164 166 167 170 165 158 162 147 147 150 150 148 144 132 156 135 120 216 69 305 293 295 265 304 319 331 302 288 237 220 265 285 302 302 299 278 263
164 163 161 161 161 160 164 164 173 170 159 155 155 144 156 147 156 157 154 147 160 187 78 26 52 307 294 303 307 299 292 270 268 286 292 297 283 281 300 299 302 301 302
167 166 163 163 163 163 168 169 178 164 159 159 165 161 173 163 161 153 155 152 176 123 126 172 282 247 314 324 309 302 295 295 295 292 289 286 292 296 301 301 288 294 300
Height
1527 1529 1530 1533 1536 1538 1541 1543 1545 1546 1548 1549 1551 1552 1553 1554 1555 1556 1557 1557 1558 1559 1559 1559 1560 1560 1560 1561 1561 1561 1561 1561 1562 1563 1563 1564 1565 1565 1566 1567 1568 1568 1568
1526 1528 1530 1533 1537 1540 1542 1544 1546 1548 1549 1551 1552 1554 1555 1556 1557 1558 1558 1559 1560 1560 1561 1561 1561 1562 1562 1562 1563 1563 1563 1564 1564 1565 1566 1566 1567 1568 1569 1569 1570 1571 1571
1526 1528 1530 1534 1537 1541 1543 1546 1548 1549 1551 1552 1554 1555 1556 1558 1558 1559 1560 1561 1561 1562 1562 1563 1563 1563 1564 1564 1565 1565 1566 1566 1567 1568 1568 1570 1570 1570 1571 1571 1572 1573 1574
1526 1529 1532 1535 1538 1541 1544 1547 1549 1551 1552 1554 1555 1557 1558 1559 1560 1561 1562 1562 1563 1564 1564 1564 1565 1565 1566 1567 1567 1567 1568 1568 1569 1570 1573 1573 1573 1572 1573 1574 1574 1575 1576
1527 1531 1533 1536 1539 1543 1545 1548 1550 1552 1554 1555 1556 1558 1559 1560 1561 1562 1563 1564 1564 1565 1566 1566 1567 1567 1568 1569 1569 1570 1570 1571 1571 1573 1575 1575 1574 1574 1575 1576 1577 1578 1578
1528 1532 1534 1537 1541 1544 1547 1549 1551 1553 1555 1556 1558 1559 1560 1561 1563 1563 1564 1565 1566 1566 1567 1568 1569 1569 1570 1571 1571 1572 1572 1573 1574 1577 1576 1577 1576 1576 1577 1578 1578 1580 1581
1530 1534 1535 1538 1542 1545 1548 1550 1552 1554 1556 1557 1559 1560 1561 1563 1564 1565 1566 1566 1567 1568 1568 1569 1570 1571 1572 1573 1573 1574 1574 1575 1578 1578 1578 1579 1578 1578 1579 1580 1580 1581 1582
1532 1535 1536 1539 1542 1545 1548 1551 1553 1555 1556 1558 1560 1561 1562 1564 1565 1566 1567 1567 1568 1569 1570 1571 1572 1572 1573 1574 1575 1575 1576 1576 1579 1580 1580 1580 1579 1579 1580 1581 1582 1583 1584
1533 1535 1537 1540 1543 1546 1549 1551 1553 1555 1557 1559 1560 1562 1563 1565 1566 1567 1568 1569 1569 1570 1571 1572 1573 1574 1575 1575 1576 1577 1578 1578 1581 1581 1582 1581 1580 1580 1581 1582 1583 1585 1585
1532 1535 1538 1541 1544 1547 1549 1552 1554 1556 1558 1559 1561 1562 1564 1565 1567 1568 1569 1570 1570 1571 1572 1573 1573 1574 1575 1576 1577 1578 1579 1580 1582 1582 1583 1582 1581 1581 1582 1583 1584 1586 1587
1532 1535 1538 1541 1544 1547 1550 1552 1554 1556 1558 1560 1561 1563 1565 1567 1569 1569 1570 1570 1571 1572 1572 1573 1574 1575 1576 1577 1577 1578 1579 1582 1583 1583 1583 1582 1582 1582 1583 1584 1585 1586 1587
1531 1535 1538 1541 1543 1547 1550 1552 1554 1557 1558 1560 1562 1563 1565 1567 1568 1570 1570 1570 1571 1572 1573 1573 1574 1575 1577 1579 1578 1579 1581 1582 1583 1583 1583 1582 1582 1583 1583 1584 1585 1586 1588
1531 1534 1537 1540 1543 1546 1549 1551 1554 1556 1557 1560 1561 1563 1565 1566 1568 1569 1570 1571 1571 1572 1573 1574 1575 1576 1577 1579 1579 1580 1581 1582 1583 1583 1583 1582 1582 1583 1584 1584 1585 1586 1588
1530 1533 1536 1539 1541 1544 1548 1551 1553 1555 1557 1559 1560 1562 1564 1566 1567 1568 1569 1570 1571 1572 1572 1573 1574 1575 1576 1577 1577 1578 1579 1580 1581 1582 1581 1581 1581 1582 1583 1584 1585 1586 1587
1530 1533 1536 1538 1541 1544 1546 1550 1553 1554 1557 1558 1559 1561 1562 1564 1566 1567 1568 1569 1571 1571 1572 1572 1573 1573 1574 1575 1576 1577 1577 1578 1579 1580 1581 1580 1580 1581 1582 1583 1584 1585 1586
1529 1532 1535 1538 1541 1543 1546 1549 1551 1554 1555 1557 1558 1560 1561 1563 1565 1566 1567 1568 1569 1570 1570 1571 1572 1572 1573 1574 1574 1575 1575 1577 1577 1578 1579 1579 1579 1580 1581 1581 1583 1584 1585
1529 1532 1535 1538 1541 1543 1546 1548 1551 1553 1555 1557 1558 1559 1561 1563 1563 1565 1566 1567 1568 1569 1569 1570 1570 1571 1572 1572 1573 1573 1574 1574 1575 1575 1576 1577 1577 1577 1578 1579 1581 1582 1583
1528 1532 1535 1538 1540 1543 1546 1548 1551 1553 1555 1556 1557 1559 1560 1561 1563 1564 1565 1566 1566 1568 1568 1569 1569 1570 1570 1571 1571 1571 1572 1572 1572 1572 1573 1574 1575 1576 1576 1576 1578 1579 1580
1527 1531 1534 1538 1540 1542 1546 1548 1550 1552 1554 1556 1557 1559 1560 1561 1562 1564 1564 1565 1565 1567 1567 1568 1568 1569 1569 1569 1570 1569 1570 1570 1570 1570 1570 1571 1572 1572 1573 1574 1574 1576 1577
1527 1530 1533 1536 1539 1542 1544 1547 1550 1552 1554 1556 1557 1558 1559 1561 1561 1563 1563 1563 1565 1565 1566 1566 1567 1567 1568 1568 1568 1568 1567 1568 1568 1568 1568 1569 1569 1569 1570 1571 1571 1572 1573
1526 1529 1532 1535 1538 1541 1543 1546 1549 1552 1554 1556 1557 1557 1559 1560 1561 1562 1563 1563 1563 1564 1564 1565 1566 1567 1567 1566 1567 1567 1566 1565 1565 1565 1565 1566 1566 1567 1567 1567 1568 1569 1570
1526 1528 1531 1534 1538 1541 1543 1546 1549 1551 1553 1555 1556 1557 1558 1560 1561 1562 1562 1563 1562 1562 1563 1564 1564 1566 1566 1566 1566 1566 1565 1565 1564 1564 1563 1564 1564 1564 1564 1564 1564 1565 1566
1526 1529 1532 1534 1537 1540 1543 1546 1548 1550 1552 1554 1555 1556 1558 1559 1560 1561 1561 1562 1561 1563 1563 1563 1563 1564 1565 1565 1565 1566 1565 1562 1563 1563 1562 1562 1562 1562 1562 1562 1562 1562 1562
1526 1529 1532 1535 1537 1540 1543 1546 1548 1550 1552 1554 1555 1556 1557 1558 1559 1560 1560 1561 1561 1562 1562 1563 1563 1563 1563 1565 1564 1564 1564 1564 1563 1562 1562 1561 1560 1560 1560 1560 1559 1559 1559
1526 1529 1531 1534 1537 1540 1542 1545 1547 1550 1552 1553 1554 1555 1556 1558 1558 1559 1559 1560 1560 1561 1561 1561 1561 1561 1563 1563 1564 1564 1563 1563 1562 1562 1560 1560 1560 1559 1558 1557 1557 1557 1556
1525 1528 1531 1533 1536 1539 1542 1544 1546 1548 1550 1552 1553 1555 1556 1557 1558 1558 1558 1559 1559 1560 1559 1559 1560 1560 1560 1560 1561 1562 1562 1562 1561 1560 1559 1559 1558 1557 1556 1555 1555 1554 1554